JCSAT-16

Last updated on Tue Sep 22 2026 00:03:14 GMT+0000 (Coordinated Universal Time)

1 41729U 16050A 26264.43226963 -.00000255 00000+0 00000+0 0 9991 2 41729 0.0187 165.8814 0001058 5.1402 128.8778 1.00271206 37033
UTC large
Height (km)
Speed (km/s)
/
Latitude / Longitude
Inclination (degrees)
Orbital Period (minutes)
Azimuth
Elevation
Range (km)
Doppler Factor

Next 0 passes for location: London (51.5072 / 0.1276)

No passes found over London.
JCSAT-16